Wetterdaten: aktuell Dienstag, 25.01.2022 06:20
Datum Zeit Temperatur Bodentemp. Luftfeuchte Luftdruck Regen Wind Richtung Richtung Sonnenschein
25.01.2022 06:20 2,8 C 3,2 C 87 % 1033 hPa 0,0 l/m 0,0 km/h (0 Bft) N-NW 330 0 min
25.01.2022 06:15 2,8 C 3,3 C 87 % 1033 hPa 0,0 l/m 0,0 km/h (0 Bft) N-NW 330 0 min
25.01.2022 06:09 2,7 C 3,2 C 87 % 1033 hPa 0,0 l/m 0,0 km/h (0 Bft) N-NW 330 0 min
25.01.2022 06:04 2,7 C 3,2 C 88 % 1033 hPa 0,0 l/m 0,0 km/h (0 Bft) N-NW 330 0 min
25.01.2022 06:00 2,7 C 3,2 C 88 % 1033 hPa 0,0 l/m 0,0 km/h (0 Bft) N-NW 330 0 min
25.01.2022 05:55 2,7 C 3,2 C 88 % 1033 hPa 0,0 l/m 0,0 km/h (0 Bft) NW22.5 325 0 min
25.01.2022 05:49 2,7 C 3,2 C 88 % 1033 hPa 0,0 l/m 0,0 km/h (0 Bft) N-NW22.5 335 0 min
25.01.2022 05:45 2,8 C 3,3 C 88 % 1033 hPa 0,0 l/m 0,0 km/h (0 Bft) N-NW 330 0 min
25.01.2022 05:40 2,8 C 3,3 C 88 % 1033 hPa 0,0 l/m 0,0 km/h (0 Bft) N-NW 330 0 min
25.01.2022 05:34 2,8 C 3,4 C 87 % 1033 hPa 0,0 l/m 0,0 km/h (0 Bft) N-NW 330 0 min
25.01.2022 05:29 2,8 C 3,4 C 87 % 1033 hPa 0,0 l/m 0,0 km/h (0 Bft) N-NW22.5 330 0 min
25.01.2022 05:25 2,9 C 3,4 C 87 % 1033 hPa 0,0 l/m 0,0 km/h (0 Bft) N-NW 330 0 min
25.01.2022 05:20 2,9 C 3,4 C 87 % 1033 hPa 0,0 l/m 0,0 km/h (0 Bft) N-NW22.5 335 0 min
25.01.2022 05:14 2,9 C 3,4 C 87 % 1033 hPa 0,0 l/m 0,0 km/h (0 Bft) N-NW 330 0 min
25.01.2022 05:09 2,8 C 3,3 C 87 % 1033 hPa 0,0 l/m 0,0 km/h (0 Bft) N-NW 330 0 min
25.01.2022 05:05 2,8 C 3,3 C 87 % 1033 hPa 0,0 l/m 0,0 km/h (0 Bft) N-NW22.5 330 0 min
25.01.2022 04:59 2,8 C 3,3 C 87 % 1033 hPa 0,0 l/m 0,0 km/h (0 Bft) N-NW22.5 330 0 min
25.01.2022 04:54 2,9 C 3,4 C 87 % 1033 hPa 0,0 l/m 0,0 km/h (0 Bft) NW22.5 325 0 min
25.01.2022 04:50 2,9 C 3,4 C 87 % 1033 hPa 0,0 l/m 0,0 km/h (0 Bft) N-NW22.5 345 0 min
25.01.2022 04:45 2,9 C 3,4 C 86 % 1033 hPa 0,0 l/m 0,0 km/h (0 Bft) N-NW22.5 340 0 min
25.01.2022 04:39 2,9 C 3,3 C 86 % 1033 hPa 0,0 l/m 0,0 km/h (0 Bft) N-NW22.5 345 0 min
25.01.2022 04:34 2,9 C 3,3 C 86 % 1033 hPa 0,0 l/m 0,0 km/h (0 Bft) N-NW 330 0 min
25.01.2022 04:30 2,9 C 3,3 C 86 % 1033 hPa 0,0 l/m 0,0 km/h (0 Bft) N-NW22.5 340 0 min
25.01.2022 04:24 2,9 C 3,3 C 86 % 1033 hPa 0,0 l/m 0,0 km/h (0 Bft) N-NW22.5 340 0 min
25.01.2022 04:19 2,9 C 3,3 C 86 % 1033 hPa 0,0 l/m 0,0 km/h (0 Bft) N-NW22.5 340 0 min
25.01.2022 04:15 2,9 C 3,3 C 86 % 1033 hPa 0,0 l/m 0,0 km/h (0 Bft) N-NW 330 0 min
25.01.2022 04:10 2,9 C 3,3 C 86 % 1033 hPa 0,0 l/m 0,0 km/h (0 Bft) N-NW22.5 345 0 min
25.01.2022 04:04 2,9 C 3,3 C 86 % 1033 hPa 0,0 l/m 0,0 km/h (0 Bft) N-NW22.5 335 0 min
25.01.2022 03:59 2,9 C 3,3 C 86 % 1033 hPa 0,0 l/m 0,0 km/h (0 Bft) NW22.5 315 0 min
25.01.2022 03:55 2,9 C 3,3 C 87 % 1033 hPa 0,0 l/m 0,0 km/h (0 Bft) N-NW22.5 345 0 min
25.01.2022 03:50 2,8 C 3,3 C 87 % 1033 hPa 0,0 l/m 4,1 km/h (1 Bft) N-NW22.5 340 0 min
25.01.2022 03:44 2,8 C 3,3 C 87 % 1033 hPa 0,0 l/m 4,2 km/h (1 Bft) N-NW22.5 335 0 min
25.01.2022 03:40 2,9 C 3,3 C 88 % 1033 hPa 0,0 l/m 0,0 km/h (0 Bft) N-NW 330 0 min
25.01.2022 03:35 2,8 C 3,3 C 88 % 1033 hPa 0,0 l/m 0,0 km/h (0 Bft) N-NW22.5 335 0 min
25.01.2022 03:29 2,8 C 3,3 C 88 % 1033 hPa 0,0 l/m 0,0 km/h (0 Bft) N22.5 350 0 min
25.01.2022 03:24 2,8 C 3,3 C 88 % 1033 hPa 0,0 l/m 0,0 km/h (0 Bft) NW22.5 320 0 min
25.01.2022 03:20 2,9 C 3,3 C 88 % 1033 hPa 0,0 l/m 0,0 km/h (0 Bft) N22.5 355 0 min
25.01.2022 03:15 2,9 C 3,3 C 88 % 1033 hPa 0,0 l/m 0,0 km/h (0 Bft) N-NW22.5 345 0 min
25.01.2022 03:09 2,9 C 3,3 C 88 % 1033 hPa 0,0 l/m 0,0 km/h (0 Bft) N22.5 350 0 min
25.01.2022 03:05 2,9 C 3,3 C 87 % 1033 hPa 0,0 l/m 0,0 km/h (0 Bft) N22.5 350 0 min
25.01.2022 03:00 2,9 C 3,3 C 87 % 1034 hPa 0,0 l/m 0,0 km/h (0 Bft) NW22.5 325 0 min
25.01.2022 02:54 2,9 C 3,3 C 87 % 1034 hPa 0,0 l/m 0,0 km/h (0 Bft) N-NW22.5 345 0 min
25.01.2022 02:49 2,9 C 3,3 C 87 % 1034 hPa 0,0 l/m 0,0 km/h (0 Bft) N-NW22.5 340 0 min
25.01.2022 02:45 2,9 C 3,3 C 87 % 1034 hPa 0,0 l/m 0,0 km/h (0 Bft) N-NW22.5 330 0 min
25.01.2022 02:40 2,9 C 3,3 C 87 % 1034 hPa 0,0 l/m 0,0 km/h (0 Bft) N-NW22.5 340 0 min
25.01.2022 02:34 2,9 C 3,3 C 87 % 1034 hPa 0,0 l/m 2,4 km/h (1 Bft) N22.5 350 0 min
25.01.2022 02:30 3,0 C 3,3 C 87 % 1034 hPa 0,0 l/m 4,5 km/h (1 Bft) NW22.5 320 0 min
25.01.2022 02:25 3,0 C 3,3 C 87 % 1034 hPa 0,0 l/m 4,1 km/h (1 Bft) N-NW22.5 340 0 min
25.01.2022 02:19 3,0 C 3,4 C 87 % 1034 hPa 0,0 l/m 4,0 km/h (1 Bft) N22.5 355 0 min
_ Min-Zeit 05:49 05:49 12:59 15:40 - 07:04 - - -
Minimum _ 2,7 C 3,2 C 77 % 1033 hPa - 0,0 km/h (0 Bft) - - -
_ Max-Zeit 12:19 11:25 07:04 08:44 07:04 11:35 - - 07:04
Maximum _ 5,2 C 5,7 C 88 % 1035 hPa 0,0 l/m 11,8 km/h
NW (2 Bft)
- - 0 min
Durchschnitt _ 3,9 C 4,4 C 84 % 1034 hPa #0,0 l/m 1,8 km/h (1 Bft) NW - #0 min.